"Sample Date","Sample Time","Sensor Name","Sample Value","Units","Flow Rate","Sample Interval","Sample Volume","Laser Status","Number Channels","Micron Size 0","Counts/Channel 0","Micron Size 1","Counts/Channel 1","Micron Size 2","Counts/Channel 2","Micron Size 3","Counts/Channel 3","Micron Size 4","Counts/Channel 4","Micron Size 5","Counts/Channel 5","Micron Size 6","Counts/Channel 6","Micron Size 7","Counts/Channel 7","Micron Size 8","Counts/Channel 8","Micron Size 9","Counts/Channel 9","Micron Size 10","Counts/Channel 10","Micron Size 11","Counts/Channel 11","Micron Size 12","Counts/Channel 12","Micron Size 13","Counts/Channel 13","Micron Size 14","Counts/Channel 14","Micron Size 15","Counts/Channel 15","Micron Size 16","Counts/Channel 16","Micron Size 17","Counts/Channel 17","Micron Size 18","Counts/Channel 18","Micron Size 19","Counts/Channel 19","Micron Size 20","Counts/Channel 20","Micron Size 21","Counts/Channel 21","Micron Size 22","Counts/Channel 22","Micron Size 23","Counts/Channel 23","Micron Size 24","Counts/Channel 24","Micron Size 25","Counts/Channel 25","Micron Size 26","Counts/Channel 26","Micron Size 27","Counts/Channel 27","Micron Size 28","Counts/Channel 28","Micron Size 29","Counts/Channel 29","Micron Size 30","Counts/Channel 30","Micron Size 31","Counts/Channel 31"
"07/12/06","06:00:01","AMMA06",83939.000,"cc",28388.951,6.00,2838.895,1,6,0.100,39255.000,0.200,35913.000,0.300,7534.000,0.500,815.000,1.000,422.000,5.000,0
"07/12/06","06:00:07","AMMA06",87116.000,"cc",28318.223,6.00,2831.823,1,6,0.100,41194.000,0.200,36287.000,0.300,7922.000,0.500,1112.000,1.000,601.000,5.000,0
"07/12/06","06:00:13","AMMA06",84439.000,"cc",28277.113,6.00,2827.711,1,6,0.100,40127.000,0.200,35580.000,0.300,7455.000,0.500,826.000,1.000,451.000,5.000,0
"07/12/06","06:00:19","AMMA06",87460.000,"cc",28280.658,6.00,2828.066,1,6,0.100,41505.000,0.200,36450.000,0.300,7850.000,0.500,1073.000,1.000,582.000,5.000,0
"07/12/06","06:00:25","AMMA06",86125.000,"cc",28350.057,6.00,2835.006,1,6,0.100,41455.000,0.200,36173.000,0.300,7382.000,0.500,738.000,1.000,376.000,5.000,1.000
"07/12/06","06:00:31","AMMA06",82271.000,"cc",28337.955,6.00,2833.796,1,6,0.100,37745.000,0.200,35741.000,0.300,7568.000,0.500,821.000,1.000,396.000,5.000,0
"07/12/06","06:00:37","AMMA06",86477.000,"cc",28295.561,6.00,2829.556,1,6,0.100,40799.000,0.200,36321.000,0.300,7840.000,0.500,1001.000,1.000,516.000,5.000,0
"07/12/06","06:00:43","AMMA06",87829.000,"cc",28414.176,6.00,2841.418,1,6,0.100,40257.000,0.200,36653.000,0.300,8707.000,0.500,1446.000,1.000,766.000,5.000,0
"07/12/06","06:00:49","AMMA06",91801.000,"cc",28274.506,6.00,2827.451,1,6,0.100,44308.000,0.200,37341.000,0.300,8303.000,0.500,1164.000,1.000,685.000,5.000,0
"07/12/06","06:00:55","AMMA06",85423.000,"cc",28288.432,6.00,2828.843,1,6,0.100,40116.000,0.200,36349.000,0.300,7668.000,0.500,828.000,1.000,462.000,5.000,0
"07/12/06","06:01:01","AMMA06",84763.000,"cc",28326.670,6.00,2832.667,1,6,0.100,40031.000,0.200,36098.000,0.300,7564.000,0.500,695.000,1.000,375.000,5.000,0
"07/12/06","06:01:07","AMMA06",92027.000,"cc",28349.664,6.00,2834.967,1,6,0.100,45150.000,0.200,37585.000,0.300,7916.000,0.500,887.000,1.000,489.000,5.000,0
"07/12/06","06:01:13","AMMA06",87767.000,"cc",28318.580,6.00,2831.858,1,6,0.100,41354.000,0.200,36591.000,0.300,8134.000,0.500,1049.000,1.000,639.000,5.000,0
"07/12/06","06:01:19","AMMA06",86433.000,"cc",28289.490,6.00,2828.949,1,6,0.100,40068.000,0.200,36676.000,0.300,8002.000,0.500,1100.000,1.000,586.000,5.000,1.000
"07/12/06","06:01:25","AMMA06",82151.000,"cc",28326.436,6.00,2832.644,1,6,0.100,37551.000,0.200,36022.000,0.300,7558.000,0.500,633.000,1.000,386.000,5.000,1.000
"07/12/06","06:01:31","AMMA06",82826.000,"cc",28317.973,6.00,2831.797,1,6,0.100,38002.000,0.200,35966.000,0.300,7568.000,0.500,803.000,1.000,487.000,5.000,0
"07/12/06","06:01:37","AMMA06",83081.000,"cc",28259.076,6.00,2825.908,1,6,0.100,38255.000,0.200,35929.000,0.300,7609.000,0.500,853.000,1.000,435.000,5.000,0
"07/12/06","06:01:43","AMMA06",82094.000,"cc",28302.188,6.00,2830.219,1,6,0.100,38061.000,0.200,35945.000,0.300,7344.000,0.500,497.000,1.000,247.000,5.000,0
"07/12/06","06:01:49","AMMA06",84989.000,"cc",28374.080,6.00,2837.408,1,6,0.100,39584.000,0.200,36297.000,0.300,7760.000,0.500,908.000,1.000,440.000,5.000,0
"07/12/06","06:01:55","AMMA06",85322.000,"cc",28346.035,6.00,2834.604,1,6,0.100,40028.000,0.200,36505.000,0.300,7617.000,0.500,789.000,1.000,382.000,5.000,1.000
"07/12/06","06:02:01","AMMA06",83297.000,"cc",28328.744,6.00,2832.875,1,6,0.100,38636.000,0.200,35814.000,0.300,7625.000,0.500,796.000,1.000,426.000,5.000,0
"07/12/06","06:02:07","AMMA06",82517.000,"cc",28326.039,6.00,2832.604,1,6,0.100,38907.000,0.200,35406.000,0.300,7272.000,0.500,609.000,1.000,323.000,5.000,0
"07/12/06","06:02:13","AMMA06",81179.000,"cc",28302.266,6.00,2830.227,1,6,0.100,37310.000,0.200,35534.000,0.300,7302.000,0.500,683.000,1.000,350.000,5.000,0
"07/12/06","06:02:19","AMMA06",82588.000,"cc",28309.897,6.00,2830.990,1,6,0.100,38020.000,0.200,35803.000,0.300,7495.000,0.500,836.000,1.000,433.000,5.000,1.000
"07/12/06","06:02:25","AMMA06",84253.000,"cc",28314.580,6.00,2831.458,1,6,0.100,39991.000,0.200,35580.000,0.300,7411.000,0.500,826.000,1.000,445.000,5.000,0
"07/12/06","06:02:31","AMMA06",88015.000,"cc",28257.320,6.00,2825.732,1,6,0.100,40136.000,0.200,36491.000,0.300,8905.000,0.500,1628.000,1.000,855.000,5.000,0
"07/12/06","06:02:37","AMMA06",88213.000,"cc",28308.150,6.00,2830.815,1,6,0.100,40330.000,0.200,36364.000,0.300,8889.000,0.500,1742.000,1.000,888.000,5.000,0
"07/12/06","06:02:43","AMMA06",85696.000,"cc",28351.865,6.00,2835.187,1,6,0.100,39844.000,0.200,36126.000,0.300,8017.000,0.500,1132.000,1.000,577.000,5.000,0
"07/12/06","06:02:49","AMMA06",92327.000,"cc",28328.145,6.00,2832.815,1,6,0.100,44052.000,0.200,36931.000,0.300,8913.000,0.500,1593.000,1.000,838.000,5.000,0
"07/12/06","06:02:55","AMMA06",85385.000,"cc",28309.586,6.00,2830.959,1,6,0.100,39590.000,0.200,35704.000,0.300,8134.000,0.500,1283.000,1.000,674.000,5.000,0
"07/12/06","06:03:01","AMMA06",82698.000,"cc",28298.135,6.00,2829.814,1,6,0.100,39171.000,0.200,34961.000,0.300,7367.000,0.500,813.000,1.000,386.000,5.000,0
"07/12/06","06:03:07","AMMA06",82642.000,"cc",28275.156,6.00,2827.516,1,6,0.100,39143.000,0.200,35354.000,0.300,7143.000,0.500,695.000,1.000,307.000,5.000,0
"07/12/06","06:03:13","AMMA06",82413.000,"cc",28355.781,6.00,2835.578,1,6,0.100,38877.000,0.200,35087.000,0.300,7314.000,0.500,733.000,1.000,402.000,5.000,0
"07/12/06","06:03:19","AMMA06",81806.000,"cc",28344.889,6.00,2834.489,1,6,0.100,38871.000,0.200,34772.000,0.300,7113.000,0.500,724.000,1.000,326.000,5.000,0
"07/12/06","06:03:25","AMMA06",83895.000,"cc",28294.051,6.00,2829.405,1,6,0.100,40688.000,0.200,34813.000,0.300,7194.000,0.500,818.000,1.000,382.000,5.000,0
"07/12/06","06:03:31","AMMA06",85531.000,"cc",28341.590,6.00,2834.159,1,6,0.100,40992.000,0.200,35367.000,0.300,7657.000,0.500,978.000,1.000,537.000,5.000,0
"07/12/06","06:03:37","AMMA06",87744.000,"cc",28331.563,6.00,2833.157,1,6,0.100,42802.000,0.200,35614.000,0.300,7693.000,0.500,1065.000,1.000,570.000,5.000,0
"07/12/06","06:03:43","AMMA06",89930.000,"cc",28330.477,6.00,2833.048,1,6,0.100,44673.000,0.200,35922.000,0.300,7737.000,0.500,1059.000,1.000,539.000,5.000,0
"07/12/06","06:03:49","AMMA06",87493.000,"cc",28300.469,6.00,2830.047,1,6,0.100,42902.000,0.200,35514.000,0.300,7539.000,0.500,1041.000,1.000,497.000,5.000,0
"07/12/06","06:03:55","AMMA06",92015.000,"cc",28252.572,6.00,2825.257,1,6,0.100,46601.000,0.200,36099.000,0.300,7747.000,0.500,1046.000,1.000,522.000,5.000,0
"07/12/06","06:04:01","AMMA06",86672.000,"cc",28302.617,6.00,2830.262,1,6,0.100,42284.000,0.200,35435.000,0.300,7491.000,0.500,972.000,1.000,490.000,5.000,0
"07/12/06","06:04:07","AMMA06",81032.000,"cc",28299.762,6.00,2829.976,1,6,0.100,38925.000,0.200,34257.000,0.300,6902.000,0.500,617.000,1.000,331.000,5.000,0
"07/12/06","06:04:13","AMMA06",80905.000,"cc",28330.553,6.00,2833.055,1,6,0.100,38738.000,0.200,34156.000,0.300,6957.000,0.500,719.000,1.000,335.000,5.000,0
"07/12/06","06:04:19","AMMA06",81075.000,"cc",28323.691,6.00,2832.369,1,6,0.100,39321.000,0.200,33962.000,0.300,6845.000,0.500,621.000,1.000,326.000,5.000,0
"07/12/06","06:04:25","AMMA06",80484.000,"cc",28343.590,6.00,2834.359,1,6,0.100,38524.000,0.200,34336.000,0.300,6680.000,0.500,639.000,1.000,305.000,5.000,0
"07/12/06","06:04:31","AMMA06",80756.000,"cc",28308.529,6.00,2830.853,1,6,0.100,38786.000,0.200,34086.000,0.300,6836.000,0.500,703.000,1.000,345.000,5.000,0
"07/12/06","06:04:37","AMMA06",82680.000,"cc",28281.250,6.00,2828.125,1,6,0.100,39572.000,0.200,34137.000,0.300,7384.000,0.500,1045.000,1.000,541.000,5.000,1.000
"07/12/06","06:04:43","AMMA06",86214.000,"cc",28352.584,6.00,2835.259,1,6,0.100,42785.000,0.200,35173.000,0.300,7096.000,0.500,807.000,1.000,353.000,5.000,0
"07/12/06","06:04:49","AMMA06",99462.000,"cc",28275.428,6.00,2827.543,1,6,0.100,52731.000,0.200,37487.000,0.300,7724.000,0.500,1059.000,1.000,461.000,5.000,0
"07/12/06","06:04:55","AMMA06",87242.000,"cc",28297.699,6.00,2829.770,1,6,0.100,42948.000,0.200,35327.000,0.300,7432.000,0.500,1002.000,1.000,533.000,5.000,0
"07/12/06","06:05:01","AMMA06",86350.000,"cc",28363.055,6.00,2836.306,1,6,0.100,41822.000,0.200,34800.000,0.300,7739.000,0.500,1311.000,1.000,678.000,5.000,0
"07/12/06","06:05:07","AMMA06",90755.000,"cc",28329.324,6.00,2832.933,1,6,0.100,42338.000,0.200,35515.000,0.300,9299.000,0.500,2365.000,1.000,1238.000,5.000,0
"07/12/06","06:05:13","AMMA06",89900.000,"cc",28347.361,6.00,2834.736,1,6,0.100,42019.000,0.200,35608.000,0.300,9015.000,0.500,2113.000,1.000,1145.000,5.000,0
"07/12/06","06:05:19","AMMA06",90182.000,"cc",28284.297,6.00,2828.430,1,6,0.100,43776.000,0.200,35500.000,0.300,8440.000,0.500,1601.000,1.000,865.000,5.000,0
"07/12/06","06:05:25","AMMA06",93191.000,"cc",28314.936,6.00,2831.494,1,6,0.100,47656.000,0.200,36169.000,0.300,7704.000,0.500,1116.000,1.000,546.000,5.000,0
"07/12/06","06:05:31","AMMA06",87313.000,"cc",28309.295,6.00,2830.930,1,6,0.100,43401.000,0.200,34939.000,0.300,7459.000,0.500,1006.000,1.000,508.000,5.000,0
"07/12/06","06:05:37","AMMA06",93973.000,"cc",28310.670,6.00,2831.067,1,6,0.100,47093.000,0.200,36551.000,0.300,8326.000,0.500,1343.000,1.000,660.000,5.000,0
"07/12/06","06:05:43","AMMA06",97686.000,"cc",28327.045,6.00,2832.705,1,6,0.100,51276.000,0.200,37269.000,0.300,7651.000,0.500,983.000,1.000,507.000,5.000,0
"07/12/06","06:05:49","AMMA06",88706.000,"cc",28341.713,6.00,2834.171,1,6,0.100,43875.000,0.200,35659.000,0.300,7599.000,0.500,1034.000,1.000,539.000,5.000,0
"07/12/06","06:05:55","AMMA06",84680.000,"cc",28299.453,6.00,2829.946,1,6,0.100,40207.000,0.200,34983.000,0.300,7758.000,0.500,1172.000,1.000,560.000,5.000,0
"07/12/06","06:06:01","AMMA06",83579.000,"cc",28291.150,6.00,2829.115,1,6,0.100,39905.000,0.200,35003.000,0.300,7312.000,0.500,890.000,1.000,469.000,5.000,0
"07/12/06","06:06:07","AMMA06",91201.000,"cc",28321.316,6.00,2832.132,1,6,0.100,45711.000,0.200,36521.000,0.300,7615.000,0.500,909.000,1.000,445.000,5.000,0
"07/12/06","06:06:13","AMMA06",99434.000,"cc",28323.660,6.00,2832.366,1,6,0.100,51979.000,0.200,38016.000,0.300,8029.000,0.500,918.000,1.000,492.000,5.000,0
"07/12/06","06:06:19","AMMA06",89765.000,"cc",28323.217,6.00,2832.322,1,6,0.100,45148.000,0.200,36460.000,0.300,7195.000,0.500,637.000,1.000,325.000,5.000,0
"07/12/06","06:06:25","AMMA06",90364.000,"cc",28314.686,6.00,2831.469,1,6,0.100,45484.000,0.200,36766.000,0.300,7263.000,0.500,577.000,1.000,273.000,5.000,1.000
"07/12/06","06:06:31","AMMA06",85007.000,"cc",28339.838,6.00,2833.984,1,6,0.100,40996.000,0.200,35495.000,0.300,7345.000,0.500,801.000,1.000,370.000,5.000,0
"07/12/06","06:06:37","AMMA06",88856.000,"cc",28374.248,6.00,2837.425,1,6,0.100,43929.000,0.200,36444.000,0.300,7334.000,0.500,770.000,1.000,379.000,5.000,0
"07/12/06","06:06:43","AMMA06",94179.000,"cc",28275.703,6.00,2827.571,1,6,0.100,47609.000,0.200,37203.000,0.300,7959.000,0.500,924.000,1.000,484.000,5.000,0
"07/12/06","06:06:49","AMMA06",81148.000,"cc",28300.250,6.00,2830.025,1,6,0.100,38721.000,0.200,34858.000,0.300,6925.000,0.500,455.000,1.000,188.000,5.000,1.000
"07/12/06","06:06:55","AMMA06",83007.000,"cc",28322.139,6.00,2832.214,1,6,0.100,39800.000,0.200,35435.000,0.300,6998.000,0.500,519.000,1.000,255.000,5.000,0
"07/12/06","06:07:01","AMMA06",80388.000,"cc",28346.625,6.00,2834.663,1,6,0.100,37946.000,0.200,35184.000,0.300,6654.000,0.500,437.000,1.000,167.000,5.000,0
"07/12/06","06:07:07","AMMA06",82318.000,"cc",28327.232,6.00,2832.723,1,6,0.100,39112.000,0.200,35100.000,0.300,7101.000,0.500,671.000,1.000,334.000,5.000,0
"07/12/06","06:07:13","AMMA06",81209.000,"cc",28306.598,6.00,2830.660,1,6,0.100,38285.000,0.200,34886.000,0.300,7041.000,0.500,666.000,1.000,331.000,5.000,0
"07/12/06","06:07:19","AMMA06",80510.000,"cc",28264.424,6.00,2826.443,1,6,0.100,37549.000,0.200,35079.000,0.300,7043.000,0.500,562.000,1.000,277.000,5.000,0
"07/12/06","06:07:25","AMMA06",80426.000,"cc",28299.834,6.00,2829.984,1,6,0.100,37738.000,0.200,34818.000,0.300,6982.000,0.500,620.000,1.000,268.000,5.000,0
"07/12/06","06:07:31","AMMA06",82262.000,"cc",28332.320,6.00,2833.232,1,6,0.100,38529.000,0.200,34918.000,0.300,7371.000,0.500,922.000,1.000,522.000,5.000,0
"07/12/06","06:07:37","AMMA06",83748.000,"cc",28317.783,6.00,2831.779,1,6,0.100,39383.000,0.200,35261.000,0.300,7538.000,0.500,1030.000,1.000,536.000,5.000,0
"07/12/06","06:07:43","AMMA06",83995.000,"cc",28360.053,6.00,2836.005,1,6,0.100,39726.000,0.200,35434.000,0.300,7485.000,0.500,846.000,1.000,504.000,5.000,0
"07/12/06","06:07:49","AMMA06",86276.000,"cc",28333.158,6.00,2833.316,1,6,0.100,41844.000,0.200,35612.000,0.300,7581.000,0.500,818.000,1.000,421.000,5.000,0
"07/12/06","06:07:55","AMMA06",82086.000,"cc",28220.047,6.00,2822.005,1,6,0.100,38609.000,0.200,35310.000,0.300,7113.000,0.500,696.000,1.000,358.000,5.000,0
"07/12/06","06:08:01","AMMA06",82710.000,"cc",28308.750,6.00,2830.875,1,6,0.100,38758.000,0.200,35137.000,0.300,7464.000,0.500,874.000,1.000,477.000,5.000,0
"07/12/06","06:08:07","AMMA06",84945.000,"cc",28338.773,6.00,2833.877,1,6,0.100,40610.000,0.200,35467.000,0.300,7394.000,0.500,964.000,1.000,509.000,5.000,1.000
"07/12/06","06:08:13","AMMA06",89792.000,"cc",28330.498,6.00,2833.050,1,6,0.100,44603.000,0.200,36391.000,0.300,7613.000,0.500,786.000,1.000,399.000,5.000,0
"07/12/06","06:08:19","AMMA06",86571.000,"cc",28317.998,6.00,2831.800,1,6,0.100,41308.000,0.200,35843.000,0.300,7844.000,0.500,1031.000,1.000,545.000,5.000,0
"07/12/06","06:08:25","AMMA06",87019.000,"cc",28292.852,6.00,2829.285,1,6,0.100,40726.000,0.200,35856.000,0.300,8223.000,0.500,1425.000,1.000,789.000,5.000,0
"07/12/06","06:08:31","AMMA06",93156.000,"cc",28330.545,6.00,2833.055,1,6,0.100,46037.000,0.200,36942.000,0.300,8262.000,0.500,1235.000,1.000,680.000,5.000,0
"07/12/06","06:08:37","AMMA06",94764.000,"cc",28341.871,6.00,2834.187,1,6,0.100,46787.000,0.200,37325.000,0.300,8456.000,0.500,1446.000,1.000,750.000,5.000,0
"07/12/06","06:08:43","AMMA06",91858.000,"cc",28341.020,6.00,2834.102,1,6,0.100,46215.000,0.200,36609.000,0.300,7663.000,0.500,897.000,1.000,474.000,5.000,0
"07/12/06","06:08:49","AMMA06",87347.000,"cc",28299.375,6.00,2829.938,1,6,0.100,42990.000,0.200,35689.000,0.300,7340.000,0.500,900.000,1.000,428.000,5.000,0
"07/12/06","06:08:55","AMMA06",88037.000,"cc",28296.520,6.00,2829.652,1,6,0.100,42777.000,0.200,35884.000,0.300,7693.000,0.500,1094.000,1.000,589.000,5.000,0
"07/12/06","06:09:01","AMMA06",86652.000,"cc",28360.883,6.00,2836.088,1,6,0.100,41962.000,0.200,35965.000,0.300,7409.000,0.500,871.000,1.000,445.000,5.000,0
"07/12/06","06:09:07","AMMA06",96477.000,"cc",28253.979,6.00,2825.398,1,6,0.100,49633.000,0.200,37408.000,0.300,7875.000,0.500,1025.000,1.000,536.000,5.000,0
"07/12/06","06:09:13","AMMA06",92582.000,"cc",28316.543,6.00,2831.655,1,6,0.100,46908.000,0.200,36604.000,0.300,7668.000,0.500,948.000,1.000,454.000,5.000,0
"07/12/06","06:09:19","AMMA06",87092.000,"cc",28343.143,6.00,2834.315,1,6,0.100,41853.000,0.200,35261.000,0.300,8110.000,0.500,1266.000,1.000,602.000,5.000,0
"07/12/06","06:09:25","AMMA06",88339.000,"cc",28289.779,6.00,2828.978,1,6,0.100,42240.000,0.200,35711.000,0.300,8300.000,0.500,1418.000,1.000,670.000,5.000,0
"07/12/06","06:09:31","AMMA06",90400.000,"cc",28310.328,6.00,2831.033,1,6,0.100,44318.000,0.200,35919.000,0.300,8107.000,0.500,1325.000,1.000,731.000,5.000,0
"07/12/06","06:09:37","AMMA06",89894.000,"cc",28320.787,6.00,2832.079,1,6,0.100,45126.000,0.200,35739.000,0.300,7560.000,0.500,983.000,1.000,486.000,5.000,0
"07/12/06","06:09:43","AMMA06",92516.000,"cc",28317.479,6.00,2831.748,1,6,0.100,46955.000,0.200,36159.000,0.300,7802.000,0.500,1060.000,1.000,540.000,5.000,0
"07/12/06","06:09:49","AMMA06",85503.000,"cc",28281.397,6.00,2828.140,1,6,0.100,41535.000,0.200,35310.000,0.300,7338.000,0.500,901.000,1.000,419.000,5.000,0
"07/12/06","06:09:55","AMMA06",84502.000,"cc",28330.555,6.00,2833.056,1,6,0.100,41413.000,0.200,35113.000,0.300,7042.000,0.500,651.000,1.000,283.000,5.000,0
"07/12/06","06:10:01","AMMA06",82689.000,"cc",28313.178,6.00,2831.318,1,6,0.100,39927.000,0.200,34852.000,0.300,6911.000,0.500,679.000,1.000,320.000,5.000,0
"07/12/06","06:10:07","AMMA06",84163.000,"cc",28278.934,6.00,2827.894,1,6,0.100,40501.000,0.200,35395.000,0.300,7181.000,0.500,755.000,1.000,331.000,5.000,0
"07/12/06","06:10:13","AMMA06",85943.000,"cc",28319.275,6.00,2831.928,1,6,0.100,41806.000,0.200,35557.000,0.300,7327.000,0.500,855.000,1.000,398.000,5.000,0
"07/12/06","06:10:19","AMMA06",83987.000,"cc",28324.527,6.00,2832.453,1,6,0.100,39934.000,0.200,35459.000,0.300,7349.000,0.500,838.000,1.000,407.000,5.000,0
"07/12/06","06:10:25","AMMA06",85787.000,"cc",28325.834,6.00,2832.584,1,6,0.100,40010.000,0.200,36296.000,0.300,7770.000,0.500,1134.000,1.000,577.000,5.000,0
"07/12/06","06:10:31","AMMA06",85432.000,"cc",28350.342,6.00,2835.034,1,6,0.100,40353.000,0.200,35975.000,0.300,7683.000,0.500,940.000,1.000,481.000,5.000,0
"07/12/06","06:10:37","AMMA06",88852.000,"cc",28286.500,6.00,2828.650,1,6,0.100,43044.000,0.200,36531.000,0.300,7690.000,0.500,1021.000,1.000,566.000,5.000,0
"07/12/06","06:10:43","AMMA06",83917.000,"cc",28295.221,6.00,2829.522,1,6,0.100,39350.000,0.200,35594.000,0.300,7526.000,0.500,904.000,1.000,543.000,5.000,0
"07/12/06","06:10:49","AMMA06",83320.000,"cc",28337.162,6.00,2833.716,1,6,0.100,38891.000,0.200,35974.000,0.300,7334.000,0.500,759.000,1.000,362.000,5.000,0
"07/12/06","06:10:55","AMMA06",84158.000,"cc",28299.666,6.00,2829.967,1,6,0.100,39447.000,0.200,35824.000,0.300,7575.000,0.500,838.000,1.000,474.000,5.000,0
"07/12/06","06:11:01","AMMA06",87430.000,"cc",28406.992,6.00,2840.700,1,6,0.100,41003.000,0.200,36401.000,0.300,8165.000,0.500,1121.000,1.000,740.000,5.000,0
"07/12/06","06:11:07","AMMA06",89039.000,"cc",28307.066,6.00,2830.707,1,6,0.100,42525.000,0.200,36843.000,0.300,8050.000,0.500,1027.000,1.000,594.000,5.000,0
"07/12/06","06:11:13","AMMA06",95982.000,"cc",28290.219,6.00,2829.022,1,6,0.100,46836.000,0.200,38427.000,0.300,8760.000,0.500,1212.000,1.000,747.000,5.000,0
"07/12/06","06:11:19","AMMA06",90163.000,"cc",28334.107,6.00,2833.411,1,6,0.100,43761.000,0.200,36914.000,0.300,8123.000,0.500,902.000,1.000,463.000,5.000,0
"07/12/06","06:11:25","AMMA06",89080.000,"cc",28309.916,6.00,2830.992,1,6,0.100,42222.000,0.200,36821.000,0.300,8251.000,0.500,1107.000,1.000,678.000,5.000,1.000
"07/12/06","06:11:31","AMMA06",91823.000,"cc",28349.551,6.00,2834.955,1,6,0.100,45162.000,0.200,37289.000,0.300,8022.000,0.500,883.000,1.000,467.000,5.000,0
"07/12/06","06:11:37","AMMA06",103358.000,"cc",28351.494,6.00,2835.150,1,6,0.100,53339.000,0.200,39779.000,0.300,8619.000,0.500,999.000,1.000,622.000,5.000,0
"07/12/06","06:11:43","AMMA06",100112.000,"cc",28307.563,6.00,2830.756,1,6,0.100,51076.000,0.200,39077.000,0.300,8441.000,0.500,976.000,1.000,542.000,5.000,0
"07/12/06","06:11:49","AMMA06",88583.000,"cc",28348.963,6.00,2834.897,1,6,0.100,42293.000,0.200,36952.000,0.300,8046.000,0.500,861.000,1.000,431.000,5.000,0
"07/12/06","06:11:55","AMMA06",89422.000,"cc",28311.424,6.00,2831.143,1,6,0.100,42891.000,0.200,37206.000,0.300,7846.000,0.500,946.000,1.000,533.000,5.000,0
"07/12/06","06:12:01","AMMA06",90269.000,"cc",28323.133,6.00,2832.314,1,6,0.100,42298.000,0.200,37341.000,0.300,8457.000,0.500,1359.000,1.000,814.000,5.000,0
"07/12/06","06:12:07","AMMA06",96544.000,"cc",28289.520,6.00,2828.952,1,6,0.100,47069.000,0.200,38090.000,0.300,9060.000,0.500,1451.000,1.000,874.000,5.000,0
"07/12/06","06:12:13","AMMA06",91897.000,"cc",28283.219,6.00,2828.322,1,6,0.100,44793.000,0.200,37670.000,0.300,8066.000,0.500,893.000,1.000,475.000,5.000,0
"07/12/06","06:12:19","AMMA06",92310.000,"cc",28313.666,6.00,2831.367,1,6,0.100,44606.000,0.200,37542.000,0.300,8446.000,0.500,1093.000,1.000,623.000,5.000,0
"07/12/06","06:12:25","AMMA06",86425.000,"cc",28310.078,6.00,2831.008,1,6,0.100,40161.000,0.200,36460.000,0.300,8073.000,0.500,1108.000,1.000,623.000,5.000,0
"07/12/06","06:12:31","AMMA06",85267.000,"cc",28350.211,6.00,2835.021,1,6,0.100,39216.000,0.200,36454.000,0.300,7994.000,0.500,986.000,1.000,617.000,5.000,0
"07/12/06","06:12:37","AMMA06",81990.000,"cc",28257.582,6.00,2825.758,1,6,0.100,37830.000,0.200,35695.000,0.300,7404.000,0.500,656.000,1.000,405.000,5.000,0
"07/12/06","06:12:43","AMMA06",81660.000,"cc",28314.627,6.00,2831.463,1,6,0.100,37456.000,0.200,35603.000,0.300,7404.000,0.500,763.000,1.000,434.000,5.000,0
"07/12/06","06:12:49","AMMA06",83786.000,"cc",28346.801,6.00,2834.680,1,6,0.100,38000.000,0.200,35671.000,0.300,8192.000,0.500,1201.000,1.000,722.000,5.000,0
"07/12/06","06:12:55","AMMA06",81308.000,"cc",28253.277,6.00,2825.328,1,6,0.100,37413.000,0.200,35458.000,0.300,7356.000,0.500,706.000,1.000,375.000,5.000,0
"07/12/06","06:13:01","AMMA06",80935.000,"cc",28335.047,6.00,2833.505,1,6,0.100,37553.000,0.200,35277.000,0.300,7170.000,0.500,606.000,1.000,329.000,5.000,0
"07/12/06","06:13:07","AMMA06",85199.000,"cc",28355.736,6.00,2835.574,1,6,0.100,38847.000,0.200,35986.000,0.300,8175.000,0.500,1304.000,1.000,887.000,5.000,0
"07/12/06","06:13:13","AMMA06",87630.000,"cc",28333.170,6.00,2833.317,1,6,0.100,40648.000,0.200,36156.000,0.300,8445.000,0.500,1462.000,1.000,919.000,5.000,0
"07/12/06","06:13:19","AMMA06",89217.000,"cc",28327.115,6.00,2832.712,1,6,0.100,42613.000,0.200,36889.000,0.300,7934.000,0.500,1086.000,1.000,695.000,5.000,0
"07/12/06","06:13:25","AMMA06",88234.000,"cc",28314.805,6.00,2831.481,1,6,0.100,42061.000,0.200,36470.000,0.300,7942.000,0.500,1117.000,1.000,642.000,5.000,2.000
"07/12/06","06:13:31","AMMA06",86208.000,"cc",28280.428,6.00,2828.043,1,6,0.100,40835.000,0.200,36379.000,0.300,7624.000,0.500,866.000,1.000,504.000,5.000,0
"07/12/06","06:13:37","AMMA06",86928.000,"cc",28290.709,6.00,2829.071,1,6,0.100,41606.000,0.200,36357.000,0.300,7739.000,0.500,795.000,1.000,431.000,5.000,0
"07/12/06","06:13:43","AMMA06",92295.000,"cc",28303.180,6.00,2830.318,1,6,0.100,45406.000,0.200,37280.000,0.300,8059.000,0.500,969.000,1.000,581.000,5.000,0
"07/12/06","06:13:49","AMMA06",95187.000,"cc",28311.703,6.00,2831.170,1,6,0.100,47252.000,0.200,38080.000,0.300,8216.000,0.500,1016.000,1.000,623.000,5.000,0
"07/12/06","06:13:55","AMMA06",92351.000,"cc",28342.803,6.00,2834.281,1,6,0.100,45204.000,0.200,37691.000,0.300,7950.000,0.500,932.000,1.000,574.000,5.000,0
"07/12/06","06:14:01","AMMA06",86577.000,"cc",28324.984,6.00,2832.499,1,6,0.100,40874.000,0.200,36506.000,0.300,7735.000,0.500,948.000,1.000,514.000,5.000,0
"07/12/06","06:14:07","AMMA06",86470.000,"cc",28326.465,6.00,2832.647,1,6,0.100,39918.000,0.200,36659.000,0.300,7975.000,0.500,1191.000,1.000,727.000,5.000,0